• In Belarus
  • List of Countries
  • For 7 days
  • Water Temperature
  • Satellite Maps
  • Weather Map
  • Weather Widgets
  • user-avatar
    Login

    Hourly Weather Kipungo

    Today, 23 October, Monday

    Time Temperature Precipitation Wind Pressure Humidity
    00:00 +23°C° 0.3 mm 1 mps 654 mmHg 64%
    01:00 +21°C° 0 mm 0 mps 654 mmHg 66%
    02:00 +21°C° 0 mm 0 mps 654 mmHg 67%
    03:00 +20°C° 0 mm 0 mps 654 mmHg 67%
    04:00 +22°C° 0 mm 1 mps 653 mmHg 67%
    05:00 +23°C° 0 mm 1 mps 654 mmHg 62%
    06:00 +24°C° 0 mm 1 mps 654 mmHg 57%
    07:00 +25°C° 0 mm 1 mps 655 mmHg 52%
    08:00 +28°C° 0 mm 1 mps 656 mmHg 43%
    09:00 +32°C° 0 mm 1 mps 656 mmHg 34%
    10:00 +35°C° 0 mm 1 mps 657 mmHg 25%
    11:00 +35°C° 0 mm 1 mps 656 mmHg 25%
    12:00 +36°C° 0 mm 2 mps 655 mmHg 24%
    13:00 +36°C° 0 mm 2 mps 655 mmHg 23%
    14:00 +35°C° 0.1 mm 2 mps 654 mmHg 26%
    15:00 +34°C° 0.1 mm 3 mps 654 mmHg 29%
    16:00 +33°C° 0.1 mm 3 mps 653 mmHg 32%
    17:00 +30°C° 1 mm 3 mps 653 mmHg 40%
    18:00 +28°C° 1 mm 3 mps 653 mmHg 49%
    19:00 +26°C° 1 mm 3 mps 653 mmHg 58%
    20:00 +25°C° 0.9 mm 3 mps 653 mmHg 62%
    21:00 +24°C° 0.9 mm 3 mps 654 mmHg 65%
    22:00 +24°C° 0.9 mm 2 mps 654 mmHg 69%
    23:00 +24°C° 0.1 mm 2 mps 654 mmHg 70%

    Tomorrow, 24 October, Tuesday

    Time Temperature Precipitation Wind Pressure Humidity
    00:00 +23°C° 0.1 mm 2 mps 654 mmHg 71%
    01:00 +23°C° 0.1 mm 1 mps 653 mmHg 72%
    02:00 +23°C° 0 mm 1 mps 653 mmHg 73%
    03:00 +23°C° 0 mm 1 mps 653 mmHg 74%
    04:00 +20°C° 0 mm 0 mps 652 mmHg 74%
    05:00 +23°C° 0 mm 1 mps 653 mmHg 70%
    06:00 +24°C° 0 mm 1 mps 654 mmHg 66%
    07:00 +25°C° 0 mm 1 mps 654 mmHg 62%
    08:00 +27°C° 0 mm 1 mps 655 mmHg 52%
    09:00 +30°C° 0 mm 1 mps 656 mmHg 43%
    10:00 +34°C° 0 mm 2 mps 656 mmHg 34%
    11:00 +34°C° 0 mm 2 mps 656 mmHg 33%
    12:00 +34°C° 0 mm 2 mps 655 mmHg 32%
    13:00 +34°C° 0 mm 2 mps 654 mmHg 32%
    14:00 +33°C° 0.2 mm 3 mps 654 mmHg 33%
    15:00 +33°C° 0.2 mm 4 mps 654 mmHg 35%
    16:00 +32°C° 0.2 mm 4 mps 653 mmHg 37%
    17:00 +29°C° 0.8 mm 4 mps 654 mmHg 44%
    18:00 +27°C° 0.8 mm 3 mps 654 mmHg 52%
    19:00 +25°C° 0.8 mm 3 mps 654 mmHg 59%
    20:00 +24°C° 0.1 mm 2 mps 654 mmHg 63%
    21:00 +24°C° 0.1 mm 2 mps 655 mmHg 67%
    22:00 +24°C° 0.1 mm 2 mps 655 mmHg 71%
    23:00 +23°C° 0 mm 1 mps 655 mmHg 73%

    Day after tomorrow, 25 October, Wednesday

    Time Temperature Precipitation Wind Pressure Humidity
    00:00 +23°C° 0 mm 1 mps 654 mmHg 74%
    01:00 +23°C° 0 mm 1 mps 654 mmHg 75%
    02:00 +22°C° 0 mm 1 mps 654 mmHg 77%
    03:00 +22°C° 0 mm 1 mps 653 mmHg 79%
    04:00 +22°C° 0 mm 1 mps 653 mmHg 80%
    05:00 +22°C° 0 mm 1 mps 653 mmHg 77%
    06:00 +23°C° 0 mm 1 mps 654 mmHg 73%
    07:00 +24°C° 0 mm 2 mps 655 mmHg 69%
    08:00 +26°C° 0 mm 2 mps 655 mmHg 59%
    09:00 +29°C° 0 mm 2 mps 656 mmHg 48%
    10:00 +32°C° 0 mm 2 mps 657 mmHg 38%
    11:00 +34°C° 0 mm 2 mps 656 mmHg 33%
    12:00 +35°C° 0 mm 1 mps 656 mmHg 29%
    13:00 +37°C° 0 mm 1 mps 656 mmHg 25%
    14:00 +35°C° 0.1 mm 1 mps 655 mmHg 28%
    15:00 +33°C° 0.1 mm 1 mps 654 mmHg 32%
    16:00 +32°C° 0.1 mm 1 mps 653 mmHg 35%
    17:00 +30°C° 0.1 mm 2 mps 653 mmHg 40%
    18:00 +29°C° 0.1 mm 2 mps 653 mmHg 46%
    19:00 +27°C° 0.1 mm 3 mps 654 mmHg 51%
    20:00 +26°C° 0.7 mm 3 mps 654 mmHg 57%
    21:00 +25°C° 0.7 mm 2 mps 654 mmHg 62%
    22:00 +24°C° 0.7 mm 2 mps 655 mmHg 68%
    23:00 +24°C° 1 mm 2 mps 654 mmHg 71%

    26 October, Thursday

    Time Temperature Precipitation Wind Pressure Humidity
    00:00 +23°C° 1 mm 2 mps 654 mmHg 74%
    01:00 +22°C° 1 mm 1 mps 653 mmHg 78%
    02:00 +22°C° 0.3 mm 1 mps 653 mmHg 78%
    03:00 +22°C° 0.3 mm 1 mps 653 mmHg 79%
    04:00 +22°C° 0.3 mm 1 mps 653 mmHg 80%
    05:00 +23°C° 0 mm 1 mps 653 mmHg 76%
    06:00 +21°C° 0 mm 0 mps 654 mmHg 73%
    07:00 +22°C° 0 mm 0 mps 654 mmHg 69%
    08:00 +27°C° 0 mm 1 mps 655 mmHg 59%
    09:00 +29°C° 0 mm 1 mps 655 mmHg 50%
    10:00 +32°C° 0 mm 1 mps 656 mmHg 40%
    11:00 +33°C° 0 mm 1 mps 655 mmHg 35%
    12:00 +35°C° 0 mm 1 mps 655 mmHg 30%
    13:00 +37°C° 0 mm 1 mps 655 mmHg 26%
    14:00 +35°C° 0 mm 1 mps 654 mmHg 28%
    15:00 +35°C° 0 mm 2 mps 653 mmHg 30%
    16:00 +32°C° 0 mm 2 mps 652 mmHg 32%
    17:00 +31°C° 0.1 mm 2 mps 653 mmHg 37%
    18:00 +30°C° 0.1 mm 2 mps 653 mmHg 41%
    19:00 +28°C° 0.1 mm 3 mps 653 mmHg 46%
    20:00 +27°C° 0.1 mm 3 mps 653 mmHg 51%
    21:00 +26°C° 0.1 mm 2 mps 653 mmHg 56%
    22:00 +25°C° 0.1 mm 2 mps 653 mmHg 61%
    23:00 +24°C° 0.1 mm 2 mps 653 mmHg 64%

    27 October, Friday

    Time Temperature Precipitation Wind Pressure Humidity
    00:00 +24°C° 0.1 mm 2 mps 652 mmHg 67%
    01:00 +23°C° 0.1 mm 2 mps 652 mmHg 70%
    02:00 +23°C° 0 mm 1 mps 652 mmHg 72%
    03:00 +22°C° 0 mm 1 mps 652 mmHg 73%
    04:00 +22°C° 0 mm 1 mps 652 mmHg 74%
    05:00 +22°C° 0 mm 1 mps 652 mmHg 71%
    06:00 +23°C° 0 mm 1 mps 653 mmHg 68%
    07:00 +24°C° 0 mm 1 mps 654 mmHg 64%
    08:00 +28°C° 0 mm 1 mps 654 mmHg 50%
    09:00 +31°C° 0 mm 1 mps 655 mmHg 35%
    10:00 +35°C° 0 mm 1 mps 656 mmHg 21%
    11:00 +36°C° 0 mm 1 mps 655 mmHg 19%
    12:00 +39°C° 0 mm 1 mps 655 mmHg 17%
    13:00 +41°C° 0 mm 1 mps 655 mmHg 15%
    14:00 +39°C° 0 mm 1 mps 654 mmHg 17%
    15:00 +38°C° 0 mm 2 mps 653 mmHg 18%
    16:00 +36°C° 0 mm 2 mps 652 mmHg 20%
    17:00 +34°C° 0 mm 2 mps 652 mmHg 24%
    18:00 +33°C° 0 mm 3 mps 652 mmHg 27%
    19:00 +30°C° 0 mm 3 mps 652 mmHg 31%
    20:00 +28°C° 0 mm 3 mps 652 mmHg 35%
    21:00 +27°C° 0 mm 3 mps 652 mmHg 38%
    22:00 +26°C° 0 mm 3 mps 653 mmHg 42%
    23:00 +25°C° 0 mm 2 mps 652 mmHg 46%

    28 October, Saturday

    Time Temperature Precipitation Wind Pressure Humidity
    00:00 +24°C° 0 mm 2 mps 652 mmHg 50%
    01:00 +23°C° 0 mm 2 mps 651 mmHg 53%
    02:00 +23°C° 0 mm 2 mps 651 mmHg 57%
    03:00 +22°C° 0 mm 1 mps 651 mmHg 60%
    04:00 +21°C° 0 mm 1 mps 651 mmHg 63%
    05:00 +22°C° 0 mm 1 mps 652 mmHg 60%
    06:00 +23°C° 0 mm 1 mps 652 mmHg 56%
    07:00 +24°C° 0 mm 1 mps 653 mmHg 53%
    08:00 +28°C° 0 mm 1 mps 654 mmHg 42%
    09:00 +32°C° 0 mm 1 mps 654 mmHg 31%
    10:00 +36°C° 0 mm 1 mps 655 mmHg 20%
    11:00 +37°C° 0 mm 1 mps 655 mmHg 18%
    12:00 +40°C° 0 mm 1 mps 654 mmHg 15%
    13:00 +42°C° 0 mm 1 mps 654 mmHg 13%
    14:00 +40°C° 0 mm 1 mps 653 mmHg 14%
    15:00 +39°C° 0 mm 1 mps 653 mmHg 14%
    16:00 +37°C° 0 mm 1 mps 652 mmHg 15%
    17:00 +36°C° 0 mm 2 mps 652 mmHg 18%
    18:00 +33°C° 0 mm 3 mps 652 mmHg 22%
    19:00 +30°C° 0 mm 3 mps 652 mmHg 26%
    20:00 +28°C° 0 mm 3 mps 652 mmHg 31%
    21:00 +27°C° 0 mm 3 mps 652 mmHg 37%
    22:00 +26°C° 0 mm 3 mps 652 mmHg 42%
    23:00 +25°C° 0 mm 3 mps 651 mmHg 46%

    29 October, Sunday

    Time Temperature Precipitation Wind Pressure Humidity
    00:00 +24°C° 0 mm 2 mps 651 mmHg 49%
    01:00 +23°C° 0 mm 2 mps 651 mmHg 53%
    02:00 +21°C° 0 mm 2 mps 650 mmHg 55%
    03:00 +21°C° 0 mm 2 mps 650 mmHg 57%
    04:00 +20°C° 0 mm 2 mps 650 mmHg 59%
    05:00 +22°C° 0 mm 1 mps 651 mmHg 55%
    06:00 +23°C° 0 mm 1 mps 652 mmHg 52%
    07:00 +24°C° 0 mm 1 mps 652 mmHg 49%
    08:00 +27°C° 0 mm 1 mps 653 mmHg 39%
    09:00 +31°C° 0 mm 1 mps 654 mmHg 28%
    10:00 +34°C° 0 mm 1 mps 654 mmHg 18%
    11:00 +36°C° 0 mm 1 mps 654 mmHg 16%
    12:00 +37°C° 0 mm 1 mps 654 mmHg 14%
    13:00 +40°C° 0 mm 1 mps 653 mmHg 12%
    14:00 +39°C° 0 mm 1 mps 653 mmHg 12%
    15:00 +38°C° 0 mm 2 mps 652 mmHg 12%
    16:00 +38°C° 0 mm 2 mps 652 mmHg 13%
    17:00 +36°C° 0 mm 2 mps 652 mmHg 16%
    18:00 +34°C° 0 mm 3 mps 652 mmHg 19%
    19:00 +32°C° 0 mm 4 mps 652 mmHg 22%
    20:00 +29°C° 0 mm 3 mps 653 mmHg 27%
    21:00 +28°C° 0 mm 3 mps 653 mmHg 32%
    22:00 +26°C° 0 mm 2 mps 653 mmHg 37%
    23:00 +25°C° 0 mm 2 mps 653 mmHg 40%
    Show more